Location: Austin
(30.3000°N, 97.7500°W)
Time: 03:54:32
(UTC-05:00)

Cosmos 2228 Rocket - Pass Details

Date: 18 March 2023
Orbit: 618 x 650 km, 82.5° (Epoch: 01 April)

Event Time Altitude Azimuth Distance (km) Brightness Sun altitude
Rises 20:20:16 0° 352° (N) 2,970 6.7 -9.3°
Reaches altitude 10° 20:22:32 10° 351° (N) 2,055 5.9 -9.8°
Maximum altitude 20:27:06 80° 266° (W) 661 3.3 -10.7°
Drops below altitude 10° 20:31:37 10° 179° (S) 2,031 5.6 -11.7°
Sets 20:33:51 0° 178° (S) 2,932 6.4 -12.2°
